Location: Ellerstadt
(49.4644°N, 8.2615°E)
Time: 10:09:16
(UTC+00:00)

Cosmos 2154 Rocket - Pass Details

Date: 03 March 2021
Orbit: 966 x 996 km, 82.9° (Epoch: 12 April)

Event Time Altitude Azimuth Distance (km) Brightness Sun altitude
Rises 17:34:45 0° 164° (SSE) 3,657 6.9 -4.3°
Reaches altitude 10° 17:37:23 10° 157° (SSE) 2,710 6.2 -4.7°
Maximum altitude 17:43:08 42° 89° (E) 1,357 4.4 -5.7°
Drops below altitude 10° 17:48:54 10° 21° (NNE) 2,718 6.1 -6.6°
Sets 17:51:32 0° 15° (NNE) 3,669 6.8 -7.0°
